Regional Weather Roundup
Issued by NWS Goodland, KS

Home | Current Version | Previous Version | Text Only | Print | Product List | Glossary Off
Versions: 1 2 3 4 5 6 7 8 9 10 11 12 13 14 15 16 17 18 19 20 21 22 23 24 25 26 27 28 29 30 31 32 33 34 35 36 37 38 39 40 41 42 43 44 45 46 47 48 49 50

000
ASUS43 KGLD 240159
RWRGLD

GOODLAND FORECAST AREA HOURLY WEATHER ROUNDUP
NATIONAL WEATHER SERVICE GOODLAND KS
800 PM MDT SUN APR 23 2017

...OFFICIAL OBSERVATIONS...

CITY           SKY/WX    TMP DP  RH WIND       PRES   REMARKS
GOODLAND KS    CLOUDY    59  39  47 S24       29.74F
HILL CITY KS   PTCLDY    60  34  37 SE13      29.84F
IMPERIAL NEB   CLOUDY    60  38  43 S14       29.72F
MCCOOK NEB     CLOUDY    61  33  35 S13       29.77F
AKRON CO       CLOUDY    59  37  44 SE10      29.70F
BURLINGTON CO  NOT AVBL
LIMON CO       CLOUDY    55  38  52 SE9       29.73F
$$

...UNOFFICIAL OBSERVATIONS...

CITY           SKY/WX    TMP DP  RH WIND       PRES   REMARKS
LENORA KS        N/A     59  32  36 MISG        N/A
NORTON KS      CLEAR     59  27  29 SE13G21   29.81F
SHARON SPRINGS   N/A     59  41  52 S16G24      N/A
TRENTON NEB      N/A     59  32  36 S13         N/A
KIT CARSON CO    N/A     64  40  42 MISG        N/A
YUMA CO        FAIR      59  39  47 SE12      29.69F
$$




USA.gov is the U.S. government's official web portal to all federal, state and local government web resources and services.